Year,Month,Day,Hour,Minute,Value (Times are PST for temperature in C)
2022,04,25,00,00,8.30
2022,04,25,00,01,8.30
2022,04,25,00,02,8.30
2022,04,25,00,03,8.30
2022,04,25,00,04,8.30
2022,04,25,00,05,8.30
2022,04,25,00,06,8.30
2022,04,25,00,07,8.30
2022,04,25,00,08,8.30
2022,04,25,00,09,8.30
2022,04,25,00,10,8.20
2022,04,25,00,11,8.30
2022,04,25,00,12,8.20
2022,04,25,00,13,8.20
2022,04,25,00,14,8.20
2022,04,25,00,15,8.20
2022,04,25,00,16,8.20
2022,04,25,00,17,8.20
2022,04,25,00,18,8.20
2022,04,25,00,19,8.20
2022,04,25,00,20,8.20
2022,04,25,00,21,8.20
2022,04,25,00,22,8.20
2022,04,25,00,23,8.20
2022,04,25,00,24,8.10
2022,04,25,00,25,8.20
2022,04,25,00,26,8.20
2022,04,25,00,27,8.20
2022,04,25,00,28,8.10
2022,04,25,00,29,8.10
2022,04,25,00,30,8.10
2022,04,25,00,31,8.10
2022,04,25,00,32,8.10
2022,04,25,00,33,8.10
2022,04,25,00,34,8.20
2022,04,25,00,35,8.20
2022,04,25,00,36,8.10
2022,04,25,00,37,8.20
2022,04,25,00,38,8.20
2022,04,25,00,39,8.20
2022,04,25,00,40,8.20
2022,04,25,00,41,8.20
2022,04,25,00,42,8.20
2022,04,25,00,43,8.20
2022,04,25,00,44,8.20
2022,04,25,00,45,8.20
2022,04,25,00,46,8.20
2022,04,25,00,47,8.20
2022,04,25,00,48,8.20
2022,04,25,00,49,8.20
2022,04,25,00,50,8.20
2022,04,25,00,51,8.20
2022,04,25,00,52,8.20
2022,04,25,00,53,8.20
2022,04,25,00,54,8.20
2022,04,25,00,55,8.20
2022,04,25,00,56,8.20
2022,04,25,00,57,8.20
2022,04,25,00,58,8.20
2022,04,25,00,59,8.20
2022,04,25,01,00,8.20
2022,04,25,01,01,8.20
2022,04,25,01,02,8.20
2022,04,25,01,03,8.20
2022,04,25,01,04,8.20
2022,04,25,01,05,8.20
2022,04,25,01,06,8.30
2022,04,25,01,07,8.30
2022,04,25,01,08,8.20
2022,04,25,01,09,8.20
2022,04,25,01,10,8.20
2022,04,25,01,11,8.20
2022,04,25,01,12,8.30
2022,04,25,01,13,8.30
2022,04,25,01,14,8.30
2022,04,25,01,15,8.30
2022,04,25,01,16,8.30
2022,04,25,01,17,8.30
2022,04,25,01,18,8.30
2022,04,25,01,19,8.20
2022,04,25,01,20,8.30
2022,04,25,01,21,8.20
2022,04,25,01,22,8.20
2022,04,25,01,23,8.20
2022,04,25,01,24,8.20
2022,04,25,01,25,8.30
2022,04,25,01,26,8.30
2022,04,25,01,27,8.30
2022,04,25,01,28,8.30
2022,04,25,01,29,8.20
2022,04,25,01,30,8.30
2022,04,25,01,31,8.30
2022,04,25,01,32,8.30
2022,04,25,01,33,8.30
2022,04,25,01,34,8.30
2022,04,25,01,35,8.30
2022,04,25,01,36,8.30
2022,04,25,01,37,8.30
2022,04,25,01,38,8.20
2022,04,25,01,39,8.20
2022,04,25,01,40,8.20
2022,04,25,01,41,8.20
2022,04,25,01,42,8.20
2022,04,25,01,43,8.20
2022,04,25,01,44,8.20
2022,04,25,01,45,8.20
2022,04,25,01,46,8.20
2022,04,25,01,47,8.20
2022,04,25,01,48,8.20
2022,04,25,01,49,8.20
2022,04,25,01,50,8.20
2022,04,25,01,51,8.20
2022,04,25,01,52,8.20
2022,04,25,01,53,8.20
2022,04,25,01,54,8.20
2022,04,25,01,55,8.30
2022,04,25,01,56,8.30
2022,04,25,01,57,8.30
2022,04,25,01,58,8.30
2022,04,25,01,59,8.30
2022,04,25,02,00,8.30
2022,04,25,02,01,8.30
2022,04,25,02,02,8.30
2022,04,25,02,03,8.30
2022,04,25,02,04,8.30
2022,04,25,02,05,8.30
2022,04,25,02,06,8.30
2022,04,25,02,07,8.30
2022,04,25,02,08,8.30
2022,04,25,02,09,8.30
2022,04,25,02,10,8.30
2022,04,25,02,11,8.30
2022,04,25,02,12,8.30
2022,04,25,02,13,8.30
2022,04,25,02,14,8.40
2022,04,25,02,15,8.40
2022,04,25,02,16,8.40
2022,04,25,02,17,8.40
2022,04,25,02,18,8.40
2022,04,25,02,19,8.40
2022,04,25,02,20,8.40
2022,04,25,02,21,8.40
2022,04,25,02,22,8.40
2022,04,25,02,23,8.40
2022,04,25,02,24,8.40
2022,04,25,02,25,8.40
2022,04,25,02,26,8.40
2022,04,25,02,27,8.40
2022,04,25,02,28,8.40
2022,04,25,02,29,8.40
2022,04,25,02,30,8.40
2022,04,25,02,31,8.40
2022,04,25,02,32,8.40
2022,04,25,02,33,8.40
2022,04,25,02,34,8.40
2022,04,25,02,35,8.40
2022,04,25,02,36,8.30
2022,04,25,02,37,8.30
2022,04,25,02,38,8.30
2022,04,25,02,39,8.30
2022,04,25,02,40,8.30
2022,04,25,02,41,8.30
2022,04,25,02,42,8.30
2022,04,25,02,43,8.30
2022,04,25,02,44,8.30
2022,04,25,02,45,8.30
2022,04,25,02,46,8.30
2022,04,25,02,47,8.30
2022,04,25,02,48,8.30
2022,04,25,02,49,8.30
2022,04,25,02,50,8.30
2022,04,25,02,51,8.30
2022,04,25,02,52,8.30
2022,04,25,02,53,8.30
2022,04,25,02,54,8.30
2022,04,25,02,55,8.30
2022,04,25,02,56,8.30
2022,04,25,02,57,8.30
2022,04,25,02,58,8.30
2022,04,25,02,59,8.30
2022,04,25,03,00,8.30
2022,04,25,03,01,8.30
2022,04,25,03,02,8.30
2022,04,25,03,03,8.30
2022,04,25,03,04,8.30
2022,04,25,03,05,8.30
2022,04,25,03,06,8.30
2022,04,25,03,07,8.30
2022,04,25,03,08,8.30
2022,04,25,03,09,8.30
2022,04,25,03,10,8.30
2022,04,25,03,11,8.30
2022,04,25,03,12,8.40
2022,04,25,03,13,8.40
2022,04,25,03,14,8.40
2022,04,25,03,15,8.30
2022,04,25,03,16,8.30
2022,04,25,03,17,8.30
2022,04,25,03,18,8.30
2022,04,25,03,19,8.20
2022,04,25,03,20,8.20
2022,04,25,03,21,8.10
2022,04,25,03,22,8.00
2022,04,25,03,23,8.00
2022,04,25,03,24,8.00
2022,04,25,03,25,7.90
2022,04,25,03,26,7.90
2022,04,25,03,27,7.90
2022,04,25,03,28,7.80
2022,04,25,03,29,7.80
2022,04,25,03,30,7.80
2022,04,25,03,31,7.80
2022,04,25,03,32,7.80
2022,04,25,03,33,7.80
2022,04,25,03,34,7.80
2022,04,25,03,35,7.70
2022,04,25,03,36,7.70
2022,04,25,03,37,7.70
2022,04,25,03,38,7.70
2022,04,25,03,39,7.70
2022,04,25,03,40,7.70
2022,04,25,03,41,7.60
2022,04,25,03,42,7.60
2022,04,25,03,43,7.60
2022,04,25,03,44,7.60
2022,04,25,03,45,7.60
2022,04,25,03,46,7.50
2022,04,25,03,47,7.50
2022,04,25,03,48,7.50
2022,04,25,03,49,7.40
2022,04,25,03,50,7.40
2022,04,25,03,51,7.40
2022,04,25,03,52,7.40
2022,04,25,03,53,7.40
2022,04,25,03,54,7.30
2022,04,25,03,55,7.30
2022,04,25,03,56,7.30
2022,04,25,03,57,7.30
2022,04,25,03,58,7.30
2022,04,25,03,59,7.30
2022,04,25,04,00,7.30
2022,04,25,04,01,7.30
2022,04,25,04,02,7.30
2022,04,25,04,03,7.30
2022,04,25,04,04,7.30
2022,04,25,04,05,7.30
2022,04,25,04,06,7.20
2022,04,25,04,07,7.20
2022,04,25,04,08,7.20
2022,04,25,04,09,7.20
2022,04,25,04,10,7.20
2022,04,25,04,11,7.10
2022,04,25,04,12,7.10
2022,04,25,04,13,7.10
2022,04,25,04,14,7.10
2022,04,25,04,15,7.10
2022,04,25,04,16,7.10
2022,04,25,04,17,7.10
2022,04,25,04,18,7.10
2022,04,25,04,19,7.10
2022,04,25,04,20,7.10
2022,04,25,04,21,7.00
2022,04,25,04,22,7.00
2022,04,25,04,23,7.00
2022,04,25,04,24,7.00
2022,04,25,04,25,6.90
2022,04,25,04,26,6.90
2022,04,25,04,27,6.90
2022,04,25,04,28,6.90
2022,04,25,04,29,6.90
2022,04,25,04,30,6.90
2022,04,25,04,31,6.90
2022,04,25,04,32,6.80
2022,04,25,04,33,6.90
2022,04,25,04,34,6.90
2022,04,25,04,35,6.80
2022,04,25,04,36,6.80
2022,04,25,04,37,6.80
2022,04,25,04,38,6.80
2022,04,25,04,39,6.80
2022,04,25,04,40,6.80
2022,04,25,04,41,6.80
2022,04,25,04,42,6.80
2022,04,25,04,43,6.80
2022,04,25,04,44,6.80
2022,04,25,04,45,6.80
2022,04,25,04,46,6.80
2022,04,25,04,47,6.80
2022,04,25,04,48,6.80
2022,04,25,04,49,6.80
2022,04,25,04,50,6.80
2022,04,25,04,51,6.70
2022,04,25,04,52,6.70
2022,04,25,04,53,6.70
2022,04,25,04,54,6.70
2022,04,25,04,55,6.70
2022,04,25,04,56,6.70
2022,04,25,04,57,6.70
2022,04,25,04,58,6.60
2022,04,25,04,59,6.60
2022,04,25,05,00,6.60
2022,04,25,05,01,6.60
2022,04,25,05,02,6.60
2022,04,25,05,03,6.60
2022,04,25,05,04,6.60
2022,04,25,05,05,6.50
2022,04,25,05,06,6.50
2022,04,25,05,07,6.50
2022,04,25,05,08,6.50
2022,04,25,05,09,6.50
2022,04,25,05,10,6.50
2022,04,25,05,11,6.50
2022,04,25,05,12,6.50
2022,04,25,05,13,6.50
2022,04,25,05,14,6.50
2022,04,25,05,15,6.50
2022,04,25,05,16,6.50
2022,04,25,05,17,6.40
2022,04,25,05,18,6.40
2022,04,25,05,19,6.40
2022,04,25,05,20,6.40
2022,04,25,05,21,6.40
2022,04,25,05,22,6.40
2022,04,25,05,23,6.40
2022,04,25,05,24,6.40
2022,04,25,05,25,6.40
2022,04,25,05,26,6.30
2022,04,25,05,27,6.30
2022,04,25,05,28,6.30
2022,04,25,05,29,6.30
2022,04,25,05,30,6.30
2022,04,25,05,31,6.30
2022,04,25,05,32,6.30
2022,04,25,05,33,6.30
2022,04,25,05,34,6.30
2022,04,25,05,35,6.20
2022,04,25,05,36,6.20
2022,04,25,05,37,6.20
2022,04,25,05,38,6.20
2022,04,25,05,39,6.20
2022,04,25,05,40,6.20
2022,04,25,05,41,6.20
2022,04,25,05,42,6.20
2022,04,25,05,43,6.10
2022,04,25,05,44,6.10
2022,04,25,05,45,6.10
2022,04,25,05,46,6.10
2022,04,25,05,47,6.10
2022,04,25,05,48,6.10
2022,04,25,05,49,6.10
2022,04,25,05,50,6.10
2022,04,25,05,51,6.00
2022,04,25,05,52,6.00
2022,04,25,05,53,6.00
2022,04,25,05,54,6.00
2022,04,25,05,55,5.90
2022,04,25,05,56,5.90
2022,04,25,05,57,5.90
2022,04,25,05,58,5.90
2022,04,25,05,59,5.90
2022,04,25,06,00,5.80
2022,04,25,06,01,5.80
2022,04,25,06,02,5.80
2022,04,25,06,03,5.80
2022,04,25,06,04,5.80
2022,04,25,06,05,5.80
2022,04,25,06,06,5.70
2022,04,25,06,07,5.70
2022,04,25,06,08,5.70
2022,04,25,06,09,5.70
2022,04,25,06,10,5.60
2022,04,25,06,11,5.60
2022,04,25,06,12,5.60
2022,04,25,06,13,5.60
2022,04,25,06,14,5.60
2022,04,25,06,15,5.50
2022,04,25,06,16,5.50
2022,04,25,06,17,5.50
2022,04,25,06,18,5.40
2022,04,25,06,19,5.40
2022,04,25,06,20,5.40
2022,04,25,06,21,5.40
2022,04,25,06,22,5.40
2022,04,25,06,23,5.40
2022,04,25,06,24,5.40
2022,04,25,06,25,5.40
2022,04,25,06,26,5.40
2022,04,25,06,27,5.40
2022,04,25,06,28,5.30
2022,04,25,06,29,5.30
2022,04,25,06,30,5.30
2022,04,25,06,31,5.30
2022,04,25,06,32,5.30
2022,04,25,06,33,5.30
2022,04,25,06,34,5.30
2022,04,25,06,35,5.30
2022,04,25,06,36,5.30
2022,04,25,06,37,5.30
2022,04,25,06,38,5.30
2022,04,25,06,39,5.30
2022,04,25,06,40,5.30
2022,04,25,06,41,5.30
2022,04,25,06,42,5.30
2022,04,25,06,43,5.30
2022,04,25,06,44,5.30
2022,04,25,06,45,5.30
2022,04,25,06,46,5.30
2022,04,25,06,47,5.30
2022,04,25,06,48,5.30
2022,04,25,06,49,5.30
2022,04,25,06,50,5.30
2022,04,25,06,51,5.20
2022,04,25,06,52,5.20
2022,04,25,06,53,5.30
2022,04,25,06,54,5.30
2022,04,25,06,55,5.30
2022,04,25,06,56,5.30
2022,04,25,06,57,5.40
2022,04,25,06,58,5.40
2022,04,25,06,59,5.40
2022,04,25,07,00,5.40
2022,04,25,07,01,5.40
2022,04,25,07,02,5.50
2022,04,25,07,03,5.50
2022,04,25,07,04,5.50
2022,04,25,07,05,5.50
2022,04,25,07,06,5.50
2022,04,25,07,07,5.50
2022,04,25,07,08,5.50
2022,04,25,07,09,5.60
2022,04,25,07,10,5.60
2022,04,25,07,11,5.60
2022,04,25,07,12,5.60
2022,04,25,07,13,5.60
2022,04,25,07,14,5.50
2022,04,25,07,15,5.60
2022,04,25,07,16,5.60
2022,04,25,07,17,5.60
2022,04,25,07,18,5.60
2022,04,25,07,19,5.60
2022,04,25,07,20,5.60
2022,04,25,07,21,5.60
2022,04,25,07,22,5.60
2022,04,25,07,23,5.70
2022,04,25,07,24,5.70
2022,04,25,07,25,5.70
2022,04,25,07,26,5.70
2022,04,25,07,27,5.70
2022,04,25,07,28,5.70
2022,04,25,07,29,5.70
2022,04,25,07,30,5.70
2022,04,25,07,31,5.70
2022,04,25,07,32,5.70
2022,04,25,07,33,5.80
2022,04,25,07,34,5.80
2022,04,25,07,35,5.80
2022,04,25,07,36,5.80
2022,04,25,07,37,5.80
2022,04,25,07,38,5.80
2022,04,25,07,39,5.90
2022,04,25,07,40,5.90
2022,04,25,07,41,5.90
2022,04,25,07,42,6.00
2022,04,25,07,43,6.00
2022,04,25,07,44,6.00
2022,04,25,07,45,6.00
2022,04,25,07,46,6.00
2022,04,25,07,47,6.10
2022,04,25,07,48,6.10
2022,04,25,07,49,6.10
2022,04,25,07,50,6.10
2022,04,25,07,51,6.10
2022,04,25,07,52,6.20
2022,04,25,07,53,6.20
2022,04,25,07,54,6.20
2022,04,25,07,55,6.30
2022,04,25,07,56,6.30
2022,04,25,07,57,6.30
2022,04,25,07,58,6.40
2022,04,25,07,59,6.50
2022,04,25,08,00,6.50
2022,04,25,08,01,6.60
2022,04,25,08,02,6.70
2022,04,25,08,03,6.80
2022,04,25,08,04,6.90
2022,04,25,08,05,7.00
2022,04,25,08,06,7.10
2022,04,25,08,07,7.20
2022,04,25,08,08,7.20
2022,04,25,08,09,7.30
2022,04,25,08,10,7.30
2022,04,25,08,11,7.40
2022,04,25,08,12,7.50
2022,04,25,08,13,7.60
2022,04,25,08,14,7.70
2022,04,25,08,15,7.70
2022,04,25,08,16,7.70
2022,04,25,08,17,7.80
2022,04,25,08,18,7.80
2022,04,25,08,19,7.90
2022,04,25,08,20,7.90
2022,04,25,08,21,8.00
2022,04,25,08,22,8.10
2022,04,25,08,23,8.20
2022,04,25,08,24,8.20
2022,04,25,08,25,8.20
2022,04,25,08,26,8.20
2022,04,25,08,27,8.20
2022,04,25,08,28,8.30
2022,04,25,08,29,8.40
2022,04,25,08,30,8.50
2022,04,25,08,31,8.50
2022,04,25,08,32,8.50
2022,04,25,08,33,8.60
2022,04,25,08,34,8.60
2022,04,25,08,35,8.60
2022,04,25,08,36,8.70
2022,04,25,08,37,8.70
2022,04,25,08,38,8.70
2022,04,25,08,39,8.80
2022,04,25,08,40,8.80
2022,04,25,08,41,8.80
2022,04,25,08,42,8.90
2022,04,25,08,43,8.90
2022,04,25,08,44,8.90
2022,04,25,08,45,8.80
2022,04,25,08,46,8.80
2022,04,25,08,47,8.80
2022,04,25,08,48,8.80
2022,04,25,08,49,8.80
2022,04,25,08,50,8.80
2022,04,25,08,51,8.80
2022,04,25,08,52,8.80
2022,04,25,08,53,8.80
2022,04,25,08,54,8.90
2022,04,25,08,55,8.90
2022,04,25,08,56,8.90
2022,04,25,08,57,8.80
2022,04,25,08,58,8.80
2022,04,25,08,59,8.80
2022,04,25,09,00,8.70
2022,04,25,09,01,8.70
2022,04,25,09,02,8.70
2022,04,25,09,03,8.70
2022,04,25,09,04,8.70
2022,04,25,09,05,8.70
2022,04,25,09,06,8.70
2022,04,25,09,07,8.70
2022,04,25,09,08,8.70
2022,04,25,09,09,8.70
2022,04,25,09,10,8.70
2022,04,25,09,11,8.70
2022,04,25,09,12,8.80
2022,04,25,09,13,8.80
2022,04,25,09,14,8.80
2022,04,25,09,15,8.80
2022,04,25,09,16,8.80
2022,04,25,09,17,8.80
2022,04,25,09,18,8.90
2022,04,25,09,19,9.00
2022,04,25,09,20,9.10
2022,04,25,09,21,9.10
2022,04,25,09,22,9.20
2022,04,25,09,23,9.20
2022,04,25,09,24,9.20
2022,04,25,09,25,9.20
2022,04,25,09,26,9.30
2022,04,25,09,27,9.30
2022,04,25,09,28,9.40
2022,04,25,09,29,9.40
2022,04,25,09,30,9.50
2022,04,25,09,31,9.50
2022,04,25,09,32,9.60
2022,04,25,09,33,9.60
2022,04,25,09,34,9.60
2022,04,25,09,35,9.60
2022,04,25,09,36,9.60
2022,04,25,09,37,9.60
2022,04,25,09,38,9.60
2022,04,25,09,39,9.70
2022,04,25,09,40,9.80
2022,04,25,09,41,9.80
2022,04,25,09,42,9.80
2022,04,25,09,43,9.80
2022,04,25,09,44,9.80
2022,04,25,09,45,9.90
2022,04,25,09,46,10.00
2022,04,25,09,47,10.00
2022,04,25,09,48,10.10
2022,04,25,09,49,10.20
2022,04,25,09,50,10.20
2022,04,25,09,51,10.30
2022,04,25,09,52,10.30
2022,04,25,09,53,10.30
2022,04,25,09,54,10.40
2022,04,25,09,55,10.40
2022,04,25,09,56,10.40
2022,04,25,09,57,10.40
2022,04,25,09,58,10.40
2022,04,25,09,59,10.40
2022,04,25,10,00,10.40
2022,04,25,10,01,10.40
2022,04,25,10,02,10.40
2022,04,25,10,03,10.50
2022,04,25,10,04,10.50
2022,04,25,10,05,10.50
2022,04,25,10,06,10.60
2022,04,25,10,07,10.60
2022,04,25,10,08,10.60
2022,04,25,10,09,10.60
2022,04,25,10,10,10.60
2022,04,25,10,11,10.70
2022,04,25,10,12,10.70
2022,04,25,10,13,10.80
2022,04,25,10,14,10.80
2022,04,25,10,15,10.80
2022,04,25,10,16,10.90
2022,04,25,10,17,10.90
2022,04,25,10,18,11.00
2022,04,25,10,19,11.10
2022,04,25,10,20,11.20
2022,04,25,10,21,11.20
2022,04,25,10,22,11.30
2022,04,25,10,23,11.30
2022,04,25,10,24,11.30
2022,04,25,10,25,11.40
2022,04,25,10,26,11.40
2022,04,25,10,27,11.50
2022,04,25,10,28,11.60
2022,04,25,10,29,11.70
2022,04,25,10,30,11.80
2022,04,25,10,31,11.80
2022,04,25,10,32,11.90
2022,04,25,10,33,11.90
2022,04,25,10,34,12.00
2022,04,25,10,35,11.90
2022,04,25,10,36,11.90
2022,04,25,10,37,11.90
2022,04,25,10,38,11.90
2022,04,25,10,39,11.90
2022,04,25,10,40,11.80
2022,04,25,10,41,11.70
2022,04,25,10,42,11.80
2022,04,25,10,43,11.80
2022,04,25,10,44,11.90
2022,04,25,10,45,11.90
2022,04,25,10,46,11.80
2022,04,25,10,47,11.70
2022,04,25,10,48,11.70
2022,04,25,10,49,11.60
2022,04,25,10,50,11.50
2022,04,25,10,51,11.40
2022,04,25,10,52,11.30
2022,04,25,10,53,11.30
2022,04,25,10,54,11.30
2022,04,25,10,55,11.30
2022,04,25,10,56,11.40
2022,04,25,10,57,11.50
2022,04,25,10,58,11.60
2022,04,25,10,59,11.80
2022,04,25,11,00,11.90
2022,04,25,11,01,12.00
2022,04,25,11,02,12.10
2022,04,25,11,03,12.10
2022,04,25,11,04,12.00
2022,04,25,11,05,12.00
2022,04,25,11,06,11.90
2022,04,25,11,07,11.80
2022,04,25,11,08,11.80
2022,04,25,11,09,11.80
2022,04,25,11,10,11.90
2022,04,25,11,11,11.80
2022,04,25,11,12,11.80
2022,04,25,11,13,11.80
2022,04,25,11,14,11.90
2022,04,25,11,15,12.00
2022,04,25,11,16,12.10
2022,04,25,11,17,12.10
2022,04,25,11,18,11.90
2022,04,25,11,19,11.60
2022,04,25,11,20,11.50
2022,04,25,11,21,11.40
2022,04,25,11,22,11.40
2022,04,25,11,23,11.30
2022,04,25,11,24,11.30
2022,04,25,11,25,11.40
2022,04,25,11,26,11.50
2022,04,25,11,27,11.50
2022,04,25,11,28,11.60
2022,04,25,11,29,11.60
2022,04,25,11,30,11.60
2022,04,25,11,31,11.70
2022,04,25,11,32,11.70
2022,04,25,11,33,11.70
2022,04,25,11,34,11.60
2022,04,25,11,35,11.50
2022,04,25,11,36,11.30
2022,04,25,11,37,11.20
2022,04,25,11,38,11.10
2022,04,25,11,39,11.00
2022,04,25,11,40,11.00
2022,04,25,11,41,10.90
2022,04,25,11,42,10.80
2022,04,25,11,43,10.60
2022,04,25,11,44,10.50
2022,04,25,11,45,10.40
2022,04,25,11,46,10.30
2022,04,25,11,47,10.30
2022,04,25,11,48,10.30
2022,04,25,11,49,10.30
2022,04,25,11,50,10.40
2022,04,25,11,51,10.40
2022,04,25,11,52,10.40
2022,04,25,11,53,10.40
2022,04,25,11,54,10.40
2022,04,25,11,55,10.40
2022,04,25,11,56,10.40
2022,04,25,11,57,10.40
2022,04,25,11,58,10.50
2022,04,25,11,59,10.60
2022,04,25,12,00,10.60
2022,04,25,12,01,10.60
2022,04,25,12,02,10.60
2022,04,25,12,03,10.60
2022,04,25,12,04,10.60
2022,04,25,12,05,10.60
2022,04,25,12,06,10.50
2022,04,25,12,07,10.40
2022,04,25,12,08,10.40
2022,04,25,12,09,10.50
2022,04,25,12,10,10.50
2022,04,25,12,11,10.50
2022,04,25,12,12,10.50
2022,04,25,12,13,10.50
2022,04,25,12,14,10.50
2022,04,25,12,15,10.60
2022,04,25,12,16,10.70
2022,04,25,12,17,10.70
2022,04,25,12,18,10.80
2022,04,25,12,19,10.70
2022,04,25,12,20,10.70
2022,04,25,12,21,10.70
2022,04,25,12,22,10.60
2022,04,25,12,23,10.60
2022,04,25,12,24,10.70
2022,04,25,12,25,10.70
2022,04,25,12,26,10.70
2022,04,25,12,27,10.70
2022,04,25,12,28,10.70
2022,04,25,12,29,10.70
2022,04,25,12,30,10.80
2022,04,25,12,31,10.80
2022,04,25,12,32,10.80
2022,04,25,12,33,10.80
2022,04,25,12,34,10.80
2022,04,25,12,35,10.90
2022,04,25,12,36,10.90
2022,04,25,12,37,10.90
2022,04,25,12,38,10.90
2022,04,25,12,39,10.90
2022,04,25,12,40,10.90
2022,04,25,12,41,10.90
2022,04,25,12,42,10.90
2022,04,25,12,43,10.90
2022,04,25,12,44,11.00
2022,04,25,12,45,11.00
2022,04,25,12,46,11.00
2022,04,25,12,47,11.00
2022,04,25,12,48,11.00
2022,04,25,12,49,11.10
2022,04,25,12,50,11.10
2022,04,25,12,51,11.10
2022,04,25,12,52,11.10
2022,04,25,12,53,11.20
2022,04,25,12,54,11.20
2022,04,25,12,55,11.20
2022,04,25,12,56,11.30
2022,04,25,12,57,11.30
2022,04,25,12,58,11.20
2022,04,25,12,59,11.10
2022,04,25,13,00,11.10
2022,04,25,13,01,11.10
2022,04,25,13,02,11.10
2022,04,25,13,03,11.10
2022,04,25,13,04,11.10
2022,04,25,13,05,11.10
2022,04,25,13,06,11.00
2022,04,25,13,07,11.10
2022,04,25,13,08,11.10
2022,04,25,13,09,11.10
2022,04,25,13,10,11.20
2022,04,25,13,11,11.20
2022,04,25,13,12,11.20
2022,04,25,13,13,11.10
2022,04,25,13,14,11.10
2022,04,25,13,15,11.10
2022,04,25,13,16,11.00
2022,04,25,13,17,11.10
2022,04,25,13,18,11.00
2022,04,25,13,19,11.00
2022,04,25,13,20,11.00
2022,04,25,13,21,11.00
2022,04,25,13,22,11.00
2022,04,25,13,23,11.00
2022,04,25,13,24,11.00
2022,04,25,13,25,11.00
2022,04,25,13,26,11.00
2022,04,25,13,27,10.90
2022,04,25,13,28,10.90
2022,04,25,13,29,10.80
2022,04,25,13,30,10.80
2022,04,25,13,31,10.80
2022,04,25,13,32,10.80
2022,04,25,13,33,10.80
2022,04,25,13,34,10.70
2022,04,25,13,35,10.70
2022,04,25,13,36,10.70
2022,04,25,13,37,10.60
2022,04,25,13,38,10.60
2022,04,25,13,39,10.60
2022,04,25,13,40,10.50
2022,04,25,13,41,10.50
2022,04,25,13,42,10.50
2022,04,25,13,43,10.50
2022,04,25,13,44,10.50
2022,04,25,13,45,10.40
2022,04,25,13,46,10.40
2022,04,25,13,47,10.40
2022,04,25,13,48,10.40
2022,04,25,13,49,10.50
2022,04,25,13,50,10.50
2022,04,25,13,51,10.60
2022,04,25,13,52,10.60
2022,04,25,13,53,10.60
2022,04,25,13,54,10.60
2022,04,25,13,55,10.50
2022,04,25,13,56,10.60
2022,04,25,13,57,10.50
2022,04,25,13,58,10.50
2022,04,25,13,59,10.50
2022,04,25,14,00,10.50
2022,04,25,14,01,10.50
2022,04,25,14,02,10.50
2022,04,25,14,03,10.50
2022,04,25,14,04,10.50
2022,04,25,14,05,10.50
2022,04,25,14,06,10.50
2022,04,25,14,07,10.50
2022,04,25,14,08,10.50
2022,04,25,14,09,10.50
2022,04,25,14,10,10.50
2022,04,25,14,11,10.60
2022,04,25,14,12,10.60
2022,04,25,14,13,10.60
2022,04,25,14,14,10.70
2022,04,25,14,15,10.70
2022,04,25,14,16,10.80
2022,04,25,14,17,10.80
2022,04,25,14,18,10.90
2022,04,25,14,19,11.00
2022,04,25,14,20,11.10
2022,04,25,14,21,11.20
2022,04,25,14,22,11.30
2022,04,25,14,23,11.40
2022,04,25,14,24,11.50
2022,04,25,14,25,11.50
2022,04,25,14,26,11.60
2022,04,25,14,27,11.60
2022,04,25,14,28,11.60
2022,04,25,14,29,11.60
2022,04,25,14,30,11.60
2022,04,25,14,31,11.60
2022,04,25,14,32,11.50
2022,04,25,14,33,11.40
2022,04,25,14,34,11.30
2022,04,25,14,35,11.30
2022,04,25,14,36,11.30
2022,04,25,14,37,11.20
2022,04,25,14,38,11.20
2022,04,25,14,39,11.20
2022,04,25,14,40,11.20
2022,04,25,14,41,11.30
2022,04,25,14,42,11.40
2022,04,25,14,43,11.60
2022,04,25,14,44,11.60
2022,04,25,14,45,11.70
2022,04,25,14,46,11.70
2022,04,25,14,47,11.60
2022,04,25,14,48,11.70
2022,04,25,14,49,11.70
2022,04,25,14,50,11.70
2022,04,25,14,51,11.70
2022,04,25,14,52,11.60
2022,04,25,14,53,11.70
2022,04,25,14,54,11.80
2022,04,25,14,55,11.90
2022,04,25,14,56,12.00
2022,04,25,14,57,12.10
2022,04,25,14,58,12.10
2022,04,25,14,59,11.90
2022,04,25,15,00,11.80
2022,04,25,15,01,11.80
2022,04,25,15,02,11.90
2022,04,25,15,03,11.90
2022,04,25,15,04,11.90
2022,04,25,15,05,12.10
2022,04,25,15,06,12.20
2022,04,25,15,07,12.30
2022,04,25,15,08,12.30
2022,04,25,15,09,12.20
2022,04,25,15,10,12.10
2022,04,25,15,11,12.00
2022,04,25,15,12,12.00
2022,04,25,15,13,12.20
2022,04,25,15,14,12.30
2022,04,25,15,15,12.40
2022,04,25,15,16,12.40
2022,04,25,15,17,12.50
2022,04,25,15,18,12.60
2022,04,25,15,19,12.70
2022,04,25,15,20,12.80
2022,04,25,15,21,12.80
2022,04,25,15,22,12.80
2022,04,25,15,23,12.90
2022,04,25,15,24,12.80
2022,04,25,15,25,12.80
2022,04,25,15,26,12.80
2022,04,25,15,27,12.90
2022,04,25,15,28,13.00
2022,04,25,15,29,13.10
2022,04,25,15,30,13.20
2022,04,25,15,31,13.30
2022,04,25,15,32,13.20
2022,04,25,15,33,13.10
2022,04,25,15,34,12.90
2022,04,25,15,35,12.80
2022,04,25,15,36,12.90
2022,04,25,15,37,12.80
2022,04,25,15,38,12.90
2022,04,25,15,39,12.90
2022,04,25,15,40,13.00
2022,04,25,15,41,13.00
2022,04,25,15,42,13.00
2022,04,25,15,43,13.10
2022,04,25,15,44,13.10
2022,04,25,15,45,13.20
2022,04,25,15,46,13.20
2022,04,25,15,47,13.30
2022,04,25,15,48,13.40
2022,04,25,15,49,13.40
2022,04,25,15,50,13.40
2022,04,25,15,51,13.40
2022,04,25,15,52,13.40
2022,04,25,15,53,13.40
2022,04,25,15,54,13.30
2022,04,25,15,55,13.30
2022,04,25,15,56,13.30
2022,04,25,15,57,13.30
2022,04,25,15,58,13.30
2022,04,25,15,59,13.20
2022,04,25,16,00,13.20
2022,04,25,16,01,13.10
2022,04,25,16,02,13.10
2022,04,25,16,03,13.10
2022,04,25,16,04,13.10
2022,04,25,16,05,13.10
2022,04,25,16,06,13.10
2022,04,25,16,07,13.10
2022,04,25,16,08,13.10
2022,04,25,16,09,13.20
2022,04,25,16,10,13.20
2022,04,25,16,11,13.20
2022,04,25,16,12,13.30
2022,04,25,16,13,13.30
2022,04,25,16,14,13.40
2022,04,25,16,15,13.30
2022,04,25,16,16,13.30
2022,04,25,16,17,13.20
2022,04,25,16,18,13.20
2022,04,25,16,19,13.10
2022,04,25,16,20,12.90
2022,04,25,16,21,12.80
2022,04,25,16,22,12.70
2022,04,25,16,23,12.70
2022,04,25,16,24,12.70
2022,04,25,16,25,12.60
2022,04,25,16,26,12.60
2022,04,25,16,27,12.50
2022,04,25,16,28,12.40
2022,04,25,16,29,12.40
2022,04,25,16,30,12.50
2022,04,25,16,31,12.40
2022,04,25,16,32,12.40
2022,04,25,16,33,12.40
2022,04,25,16,34,12.50
2022,04,25,16,35,12.60
2022,04,25,16,36,12.70
2022,04,25,16,37,12.70
2022,04,25,16,38,12.80
2022,04,25,16,39,12.80
2022,04,25,16,40,12.80
2022,04,25,16,41,12.80
2022,04,25,16,42,12.80
2022,04,25,16,43,12.70
2022,04,25,16,44,12.70
2022,04,25,16,45,12.70
2022,04,25,16,46,12.60
2022,04,25,16,47,12.60
2022,04,25,16,48,12.60
2022,04,25,16,49,12.50
2022,04,25,16,50,12.50
2022,04,25,16,51,12.50
2022,04,25,16,52,12.60
2022,04,25,16,53,12.70
2022,04,25,16,54,12.70
2022,04,25,16,55,12.70
2022,04,25,16,56,12.70
2022,04,25,16,57,12.70
2022,04,25,16,58,12.80
2022,04,25,16,59,12.80
2022,04,25,17,00,12.80
2022,04,25,17,01,12.80
2022,04,25,17,02,12.80
2022,04,25,17,03,12.90
2022,04,25,17,04,12.80
2022,04,25,17,05,12.80
2022,04,25,17,06,12.80
2022,04,25,17,07,12.70
2022,04,25,17,08,12.70
2022,04,25,17,09,12.80
2022,04,25,17,10,12.80
2022,04,25,17,11,12.80
2022,04,25,17,12,12.80
2022,04,25,17,13,12.80
2022,04,25,17,14,12.70
2022,04,25,17,15,12.70
2022,04,25,17,16,12.70
2022,04,25,17,17,12.70
2022,04,25,17,18,12.70
2022,04,25,17,19,12.70
2022,04,25,17,20,12.70
2022,04,25,17,21,12.70
2022,04,25,17,22,12.70
2022,04,25,17,23,12.80
2022,04,25,17,24,12.80
2022,04,25,17,25,12.80
2022,04,25,17,26,12.70
2022,04,25,17,27,12.60
2022,04,25,17,28,12.50
2022,04,25,17,29,12.40
2022,04,25,17,30,12.40
2022,04,25,17,31,12.30
2022,04,25,17,32,12.30
2022,04,25,17,33,12.20
2022,04,25,17,34,12.10
2022,04,25,17,35,12.10
2022,04,25,17,36,12.10
2022,04,25,17,37,12.10
2022,04,25,17,38,12.10
2022,04,25,17,39,12.10
2022,04,25,17,40,12.20
2022,04,25,17,41,12.20
2022,04,25,17,42,12.20
2022,04,25,17,43,12.10
2022,04,25,17,44,12.10